| time (UTC) | temp F | wind direction | speed MPH | gust MPH | rain 1hr in | rain 24hr in | rain mn in | humidity % | barometer mb |
| 20260507072653 | 50 | 230 | 5.0 | 8.0 | 0.07 | 0.03 | 0.03 | 99 | 1012.0 |
| 20260507072150 | 50 | 144 | 1.0 | 2.0 | 0.07 | 0.03 | 0.03 | 99 | 1011.8 |
| 20260507071648 | 50 | 143 | 1.0 | 2.0 | 0.05 | 0.02 | 0.02 | 99 | 1011.7 |
| 20260507071143 | 51 | 156 | 1.0 | 2.0 | 0.05 | 0.02 | 0.02 | 99 | 1011.7 |
| 20260507070641 | 50 | 161 | 1.0 | 5.0 | 0.00 | 0.01 | 0.01 | 99 | 1011.7 |
| 20260507070137 | 51 | 163 | 1.0 | 2.0 | 0.00 | 0.01 | 0.01 | 99 | 1011.3 |
| 20260507065634 | 51 | 163 | 1.0 | 2.0 | 0.00 | 0.01 | 0.01 | 99 | 1011.2 |
| 20260507065131 | 51 | 163 | 1.0 | 1.0 | 0.00 | 0.01 | 0.01 | 99 | 1010.9 |
| 20260507064628 | 51 | 162 | 1.0 | 2.0 | 0.00 | 0.01 | 0.01 | 99 | 1010.9 |
| 20260507064127 | 51 | 134 | 1.0 | 2.0 | 0.00 | 0.01 | 0.01 | 99 | 1010.8 |
| 20260507063624 | 51 | 134 | 1.0 | 1.0 | 0.00 | 0.01 | 0.01 | 99 | 1011.1 |
| 20260507063121 | 51 | 1 | 1.0 | 2.0 | 0.00 | 0.01 | 0.01 | 99 | 1010.8 |
| 20260507062617 | 51 | 291 | 3.0 | 3.0 | 0.00 | 0.01 | 0.01 | 99 | 1010.8 |
| 20260507062115 | 51 | 287 | 0.0 | 2.0 | 0.00 | 0.01 | 0.01 | 99 | 1010.8 |
| 20260507061613 | 51 | 219 | 3.0 | 3.0 | 0.00 | 0.01 | 0.01 | 99 | 1010.9 |
| 20260507061111 | 51 | 159 | 1.0 | 2.0 | 0.00 | 0.01 | 0.01 | 99 | 1011.1 |
| 20260507060609 | 51 | 162 | 0.0 | 3.0 | 0.00 | 0.01 | 0.01 | 99 | 1011.4 |
| 20260507060105 | 51 | 168 | 1.0 | 1.0 | 0.00 | 0.01 | 0.01 | 99 | 1011.3 |
| 20260507055600 | 51 | 163 | 2.0 | 3.0 | 0.00 | 0.01 | 0.01 | 99 | 1011.2 |
| 20260507055056 | 52 | 167 | 1.0 | 1.0 | 0.00 | 0.01 | 0.01 | 99 | 1011.1 |
| 20260507054552 | 52 | 158 | 1.0 | 2.0 | 0.00 | 0.01 | 0.01 | 99 | 1011.2 |
| 20260507054050 | 52 | 159 | 1.0 | 2.0 | 0.00 | 0.01 | 0.01 | 99 | 1011.2 |
| 20260507053548 | 52 | 166 | 1.0 | 3.0 | 0.00 | 0.01 | 0.01 | 99 | 1011.3 |
| 20260507053046 | 52 | 165 | 0.0 | 1.0 | 0.00 | 0.01 | 0.01 | 99 | 1011.3 |
| 20260507052543 | 52 | 244 | 3.0 | 5.0 | 0.00 | 0.01 | 0.01 | 99 | 1011.1 |
| 20260507052040 | 52 | 166 | 0.0 | 3.0 | 0.00 | 0.01 | 0.01 | 99 | 1011.6 |
| 20260507051538 | 52 | 161 | 1.0 | 2.0 | 0.00 | 0.01 | 0.01 | 99 | 1011.6 |
| 20260507051034 | 52 | 151 | 0.0 | 2.0 | 0.00 | 0.01 | 0.01 | 99 | 1011.7 |
| 20260507050531 | 52 | 133 | 1.0 | 3.0 | 0.00 | 0.01 | 0.01 | 99 | 1011.7 |
| 20260507050027 | 52 | 161 | 1.0 | 3.0 | 0.00 | 0.01 | 0.01 | 99 | 1011.5 |
| 20260507045524 | 53 | 154 | 0.0 | 2.0 | 0.00 | 0.01 | 0.01 | 99 | 1011.5 |
| 20260507045021 | 53 | 155 | 4.0 | 5.0 | 0.00 | 0.01 | 0.01 | 99 | 1011.2 |
| 20260507044518 | 53 | 103 | 1.0 | 5.0 | 0.00 | 0.01 | 0.01 | 99 | 1011.3 |
| 20260507044015 | 54 | 281 | 4.0 | 7.0 | 0.00 | 0.01 | 0.01 | 99 | 1011.3 |
| 20260507043511 | 54 | 84 | 4.0 | 6.0 | 0.07 | 0.01 | 0.01 | 99 | 1011.2 |
| 20260507043008 | 54 | 243 | 2.0 | 3.0 | 0.07 | 0.01 | 0.01 | 99 | 1011.3 |
| 20260507042504 | 55 | 162 | 1.0 | 6.0 | 0.00 | 0.00 | 0.00 | 99 | 1011.2 |
| 20260507041959 | 55 | 121 | 0.0 | 1.0 | 0.00 | 0.00 | 0.00 | 99 | 1011.6 |
| 20260507041457 | 55 | 123 | 1.0 | 6.0 | 0.00 | 0.00 | 0.00 | 99 | 1011.4 |
| 20260507040954 | 55 | 145 | 2.0 | 2.0 | 0.00 | 0.00 | 0.00 | 99 | 1011.3 |
| 20260507040449 | 55 | 153 | 1.0 | 5.0 | 0.00 | 0.00 | 0.00 | 99 | 1011.2 |
| 20260507035945 | 55 | 152 | 1.0 | 3.0 | 0.05 | 0.22 | 0.22 | 99 | 1011.5 |
| 20260507035442 | 56 | 163 | 2.0 | 3.0 | 0.05 | 0.22 | 0.22 | 99 | 1011.4 |
| 20260507034939 | 56 | 163 | 3.0 | 3.0 | 0.00 | 0.21 | 0.21 | 99 | 1011.4 |
| 20260507034436 | 56 | 150 | 2.0 | 3.0 | 0.07 | 0.21 | 0.21 | 99 | 1011.4 |
| 20260507033934 | 56 | 152 | 0.0 | 1.0 | 0.07 | 0.21 | 0.21 | 99 | 1011.3 |
| 20260507033431 | 56 | 152 | 1.0 | 2.0 | 0.00 | 0.20 | 0.20 | 99 | 1011.5 |
| 20260507032928 | 56 | 152 | 3.0 | 3.0 | 0.00 | 0.20 | 0.20 | 99 | 1011.4 |
| 20260507032425 | 56 | 154 | 2.0 | 3.0 | 0.00 | 0.20 | 0.20 | 99 | 1011.4 |
| 20260507031921 | 57 | 151 | 2.0 | 3.0 | 0.00 | 0.20 | 0.20 | 99 | 1011.1 |
| 20260507031418 | 57 | 155 | 1.0 | 2.0 | 0.00 | 0.20 | 0.20 | 99 | 1011.1 |
| 20260507030915 | 58 | 147 | 1.0 | 2.0 | 0.00 | 0.20 | 0.20 | 99 | 1011.2 |
| 20260507030412 | 58 | 149 | 1.0 | 5.0 | 0.00 | 0.20 | 0.20 | 99 | 1011.1 |
| 20260507025909 | 58 | 154 | 3.0 | 3.0 | 0.00 | 0.20 | 0.20 | 99 | 1011.2 |
| 20260507025406 | 58 | 178 | 2.0 | 6.0 | 0.00 | 0.20 | 0.20 | 99 | 1011.0 |
| 20260507024904 | 58 | 170 | 2.0 | 5.0 | 0.00 | 0.20 | 0.20 | 99 | 1011.0 |
| 20260507024401 | 58 | 146 | 3.0 | 7.0 | 0.00 | 0.20 | 0.20 | 99 | 1010.8 |
| 20260507023857 | 58 | 158 | 3.0 | 5.0 | 0.00 | 0.20 | 0.20 | 99 | 1010.9 |
| 20260507023354 | 58 | 175 | 3.0 | 6.0 | 0.00 | 0.20 | 0.20 | 99 | 1010.8 |
| 20260507022851 | 58 | 169 | 4.0 | 6.0 | 0.00 | 0.20 | 0.20 | 99 | 1010.9 |
| 20260507022347 | 58 | 174 | 4.0 | 5.0 | 0.00 | 0.20 | 0.20 | 99 | 1010.9 |
| 20260507021843 | 57 | 160 | 3.0 | 6.0 | 0.00 | 0.20 | 0.20 | 99 | 1010.5 |
| 20260507021339 | 57 | 156 | 2.0 | 3.0 | 0.00 | 0.20 | 0.20 | 99 | 1010.5 |
| 20260507020837 | 57 | 147 | 3.0 | 5.0 | 0.00 | 0.20 | 0.20 | 99 | 1010.6 |
| 20260507020333 | 57 | 148 | 2.0 | 6.0 | 0.00 | 0.20 | 0.20 | 99 | 1010.8 |
| 20260507015831 | 57 | 155 | 3.0 | 5.0 | 0.00 | 0.20 | 0.20 | 99 | 1010.5 |
| 20260507015329 | 57 | 181 | 5.0 | 10.0 | 0.00 | 0.20 | 0.20 | 99 | 1010.9 |
| 20260507014825 | 57 | 153 | 3.0 | 5.0 | 0.00 | 0.20 | 0.20 | 99 | 1010.6 |
| 20260507014321 | 57 | 150 | 4.0 | 5.0 | 0.00 | 0.20 | 0.20 | 99 | 1010.8 |
| 20260507013818 | 57 | 155 | 5.0 | 8.0 | 0.00 | 0.20 | 0.20 | 99 | 1010.6 |
| 20260507013315 | 57 | 167 | 5.0 | 10.0 | 0.00 | 0.20 | 0.20 | 99 | 1010.7 |
| 20260507012813 | 57 | 179 | 7.0 | 9.0 | 0.00 | 0.20 | 0.20 | 99 | 1010.6 |
| 20260507012308 | 57 | 153 | 4.0 | 5.0 | 0.00 | 0.20 | 0.20 | 99 | 1010.5 |
| 20260507011806 | 57 | 149 | 3.0 | 8.0 | 0.00 | 0.20 | 0.20 | 99 | 1010.4 |
| 20260507011302 | 57 | 130 | 5.0 | 8.0 | 0.00 | 0.20 | 0.20 | 99 | 1010.5 |
| 20260507010802 | 57 | 171 | 9.0 | 9.0 | 0.00 | 0.20 | 0.20 | 99 | 1010.5 |
| 20260507010258 | 57 | 146 | 4.0 | 8.0 | 0.00 | 0.20 | 0.20 | 99 | 1010.8 |
| 20260507005756 | 57 | 132 | 2.0 | 7.0 | 0.00 | 0.20 | 0.20 | 99 | 1010.9 |
| 20260507005252 | 57 | 148 | 5.0 | 9.0 | 0.00 | 0.20 | 0.20 | 99 | 1010.8 |
| 20260507004749 | 57 | 182 | 6.0 | 8.0 | 0.00 | 0.20 | 0.20 | 99 | 1010.8 |
| 20260507004246 | 57 | 140 | 3.0 | 6.0 | 0.00 | 0.20 | 0.20 | 99 | 1010.6 |
| 20260507003742 | 57 | 136 | 4.0 | 6.0 | 0.00 | 0.20 | 0.20 | 99 | 1010.9 |
| 20260507003238 | 57 | 144 | 3.0 | 15.0 | 0.00 | 0.20 | 0.20 | 99 | 1010.8 |
| 20260507002734 | 57 | 126 | 6.0 | 9.0 | 0.00 | 0.20 | 0.20 | 99 | 1010.9 |
| 20260507002230 | 57 | 141 | 3.0 | 7.0 | 0.00 | 0.20 | 0.20 | 99 | 1011.0 |
| 20260507001727 | 57 | 136 | 5.0 | 8.0 | 0.00 | 0.20 | 0.20 | 99 | 1010.9 |
| 20260507001225 | 57 | 153 | 3.0 | 14.0 | 0.00 | 0.20 | 0.20 | 99 | 1010.9 |
| 20260507000721 | 57 | 166 | 9.0 | 11.0 | 0.00 | 0.20 | 0.20 | 99 | 1010.7 |
| 20260507000216 | 57 | 139 | 4.0 | 7.0 | 0.00 | 0.20 | 0.20 | 99 | 1010.5 |
| 20260506235713 | 57 | 116 | 4.0 | 8.0 | 0.00 | 0.20 | 0.20 | 99 | 1010.7 |
| 20260506235209 | 57 | 126 | 3.0 | 6.0 | 0.00 | 0.20 | 0.20 | 99 | 1010.6 |
| 20260506234706 | 57 | 145 | 3.0 | 7.0 | 0.00 | 0.20 | 0.20 | 99 | 1010.6 |
| 20260506234203 | 57 | 157 | 4.0 | 8.0 | 0.00 | 0.20 | 0.20 | 99 | 1010.3 |
| 20260506233701 | 57 | 129 | 3.0 | 6.0 | 0.00 | 0.20 | 0.20 | 99 | 1010.5 |
| 20260506233157 | 57 | 132 | 2.0 | 7.0 | 0.00 | 0.20 | 0.20 | 99 | 1010.4 |
| 20260506232653 | 57 | 133 | 3.0 | 6.0 | 0.00 | 0.20 | 0.20 | 99 | 1010.2 |
| 20260506232148 | 57 | 141 | 4.0 | 7.0 | 0.00 | 0.20 | 0.20 | 99 | 1010.2 |
| 20260506231646 | 57 | 135 | 4.0 | 8.0 | 0.05 | 0.20 | 0.20 | 99 | 1010.5 |
| 20260506231145 | 57 | 135 | 4.0 | 6.0 | 0.12 | 0.20 | 0.20 | 99 | 1010.2 |
| 20260506230641 | 57 | 126 | 3.0 | 7.0 | 0.12 | 0.19 | 0.19 | 99 | 1010.1 |
| 20260506230138 | 57 | 145 | 3.0 | 5.0 | 0.05 | 0.18 | 0.18 | 99 | 1010.2 |
| 20260506225634 | 57 | 139 | 3.0 | 5.0 | 0.00 | 0.17 | 0.17 | 99 | 1010.2 |
| 20260506225131 | 58 | 152 | 3.0 | 7.0 | 0.00 | 0.17 | 0.17 | 99 | 1010.4 |
| 20260506224628 | 58 | 169 | 3.0 | 7.0 | 0.00 | 0.17 | 0.17 | 99 | 1010.3 |
| 20260506224124 | 58 | 159 | 5.0 | 8.0 | 0.07 | 0.17 | 0.17 | 99 | 1010.3 |
| 20260506223620 | 57 | 165 | 2.0 | 5.0 | 0.07 | 0.17 | 0.17 | 99 | 1010.3 |
| 20260506223116 | 57 | 140 | 2.0 | 3.0 | 0.05 | 0.16 | 0.16 | 99 | 1010.4 |
| 20260506222614 | 57 | 141 | 3.0 | 5.0 | 0.00 | 0.15 | 0.15 | 99 | 1010.5 |
| 20260506222110 | 57 | 143 | 1.0 | 5.0 | 0.00 | 0.15 | 0.15 | 99 | 1010.3 |
| 20260506221608 | 58 | 120 | 4.0 | 6.0 | 0.00 | 0.15 | 0.15 | 99 | 1010.7 |
| 20260506221106 | 58 | 148 | 4.0 | 7.0 | 0.00 | 0.15 | 0.15 | 99 | 1010.4 |
| 20260506220602 | 58 | 139 | 2.0 | 3.0 | 0.00 | 0.15 | 0.15 | 99 | 1010.2 |
| 20260506220057 | 58 | 127 | 3.0 | 6.0 | 0.07 | 0.15 | 0.15 | 99 | 1010.5 |
| 20260506215554 | 58 | 132 | 1.0 | 8.0 | 0.07 | 0.15 | 0.15 | 99 | 1010.5 |
| 20260506215049 | 58 | 151 | 2.0 | 5.0 | 0.00 | 0.14 | 0.14 | 99 | 1010.7 |
| 20260506214547 | 58 | 133 | 1.0 | 6.0 | 0.00 | 0.14 | 0.14 | 99 | 1010.6 |
| 20260506214044 | 58 | 140 | 4.0 | 6.0 | 0.07 | 0.14 | 0.14 | 99 | 1010.4 |
| 20260506213543 | 58 | 140 | 3.0 | 10.0 | 0.07 | 0.14 | 0.14 | 99 | 1010.6 |
| 20260506213040 | 58 | 101 | 5.0 | 9.0 | 0.05 | 0.13 | 0.13 | 99 | 1010.5 |
| 20260506212536 | 58 | 128 | 3.0 | 7.0 | 0.05 | 0.13 | 0.13 | 99 | 1010.5 |
| 20260506212030 | 58 | 152 | 5.0 | 7.0 | 0.07 | 0.12 | 0.12 | 99 | 1010.7 |
| 20260506211527 | 58 | 123 | 3.0 | 6.0 | 0.07 | 0.12 | 0.12 | 99 | 1010.7 |
| 20260506211024 | 58 | 142 | 5.0 | 7.0 | 0.00 | 0.11 | 0.11 | 99 | 1010.7 |
| 20260506210521 | 58 | 86 | 6.0 | 10.0 | 0.00 | 0.11 | 0.11 | 99 | 1010.7 |
| 20260506210017 | 58 | 161 | 3.0 | 10.0 | 0.05 | 0.11 | 0.11 | 99 | 1010.9 |
| 20260506205514 | 58 | 138 | 5.0 | 9.0 | 0.05 | 0.11 | 0.11 | 99 | 1010.8 |
| 20260506205009 | 58 | 124 | 6.0 | 8.0 | 0.00 | 0.10 | 0.10 | 99 | 1010.8 |
| 20260506204508 | 58 | 125 | 4.0 | 7.0 | 0.07 | 0.10 | 0.10 | 99 | 1010.6 |
| 20260506204004 | 58 | 165 | 3.0 | 6.0 | 0.07 | 0.10 | 0.10 | 99 | 1011.1 |
| 20260506203503 | 58 | 127 | 3.0 | 6.0 | 0.00 | 0.09 | 0.09 | 99 | 1011.2 |
| 20260506202958 | 58 | 145 | 4.0 | 7.0 | 0.00 | 0.09 | 0.09 | 99 | 1011.0 |
| 20260506202456 | 58 | 166 | 5.0 | 7.0 | 0.00 | 0.09 | 0.09 | 99 | 1011.0 |
| 20260506201952 | 58 | 155 | 7.0 | 8.0 | 0.00 | 0.09 | 0.09 | 99 | 1011.1 |
| 20260506201450 | 58 | 168 | 3.0 | 6.0 | 0.00 | 0.09 | 0.09 | 99 | 1011.2 |
| 20260506200946 | 58 | 127 | 4.0 | 9.0 | 0.00 | 0.09 | 0.09 | 99 | 1011.0 |
| 20260506200443 | 58 | 135 | 4.0 | 8.0 | 0.05 | 0.09 | 0.09 | 99 | 1011.2 |
| 20260506195939 | 58 | 161 | 5.0 | 7.0 | 0.00 | 0.08 | 0.08 | 99 | 1011.0 |
| 20260506195436 | 58 | 156 | 4.0 | 13.0 | 0.00 | 0.08 | 0.08 | 99 | 1011.3 |
| 20260506194933 | 58 | 120 | 5.0 | 9.0 | 0.00 | 0.08 | 0.08 | 99 | 1011.3 |
| 20260506194430 | 58 | 150 | 6.0 | 7.0 | 0.00 | 0.08 | 0.08 | 99 | 1011.6 |
| 20260506193927 | 58 | 121 | 5.0 | 10.0 | 0.00 | 0.08 | 0.08 | 99 | 1011.7 |
| 20260506193424 | 58 | 158 | 5.0 | 8.0 | 0.00 | 0.08 | 0.08 | 99 | 1011.4 |
| 20260506192920 | 58 | 155 | 4.0 | 10.0 | 0.00 | 0.08 | 0.08 | 99 | 1011.5 |
| 20260506192417 | 59 | 141 | 5.0 | 6.0 | 0.07 | 0.08 | 0.08 | 99 | 1011.6 |
| 20260506191914 | 59 | 131 | 5.0 | 8.0 | 0.00 | 0.07 | 0.07 | 99 | 1011.4 |
| 20260506191410 | 59 | 133 | 4.0 | 6.0 | 0.05 | 0.07 | 0.07 | 99 | 1011.6 |
| 20260506190908 | 59 | 161 | 4.0 | 6.0 | 0.07 | 0.06 | 0.06 | 99 | 1011.6 |
| 20260506190404 | 59 | 140 | 3.0 | 8.0 | 0.07 | 0.06 | 0.06 | 99 | 1011.7 |
| 20260506185901 | 59 | 135 | 3.0 | 5.0 | 0.05 | 0.05 | 0.05 | 99 | 1011.7 |
| 20260506185358 | 59 | 153 | 4.0 | 5.0 | 0.05 | 0.05 | 0.05 | 99 | 1011.5 |
| 20260506184855 | 59 | 131 | 4.0 | 7.0 | 0.07 | 0.04 | 0.04 | 98 | 1011.7 |
| 20260506184352 | 59 | 116 | 6.0 | 9.0 | 0.07 | 0.04 | 0.04 | 97 | 1011.7 |
| 20260506183849 | 60 | 147 | 5.0 | 8.0 | 0.07 | 0.03 | 0.03 | 96 | 1011.6 |
| 20260506183344 | 60 | 134 | 3.0 | 7.0 | 0.05 | 0.02 | 0.02 | 96 | 1011.9 |
| 20260506182842 | 60 | 148 | 3.0 | 9.0 | 0.05 | 0.02 | 0.02 | 94 | 1011.9 |
| 20260506182339 | 61 | 154 | 5.0 | 7.0 | 0.07 | 0.01 | 0.01 | 93 | 1012.0 |
| 20260506181836 | 62 | 187 | 6.0 | 7.0 | 0.07 | 0.01 | 0.01 | 91 | 1012.0 |
| 20260506181335 | 62 | 168 | 6.0 | 9.0 | 0.00 | 0.00 | 0.00 | 89 | 1012.2 |
| 20260506180831 | 63 | 140 | 4.0 | 7.0 | 0.00 | 0.00 | 0.00 | 88 | 1012.3 |
| 20260506180327 | 63 | 121 | 5.0 | 8.0 | 0.00 | 0.00 | 0.00 | 86 | 1012.4 |
| 20260506175823 | 64 | 136 | 5.0 | 11.0 | 0.00 | 0.00 | 0.00 | 84 | 1012.4 |
| 20260506175321 | 64 | 164 | 6.0 | 11.0 | 0.00 | 0.00 | 0.00 | 82 | 1012.6 |
| 20260506174818 | 64 | 147 | 7.0 | 13.0 | 0.00 | 0.00 | 0.00 | 81 | 1012.3 |
| 20260506174315 | 65 | 128 | 5.0 | 13.0 | 0.00 | 0.00 | 0.00 | 80 | 1012.5 |
| 20260506173812 | 66 | 139 | 7.0 | 11.0 | 0.00 | 0.00 | 0.00 | 78 | 1012.5 |
| 20260506173309 | 67 | 173 | 13.0 | 16.0 | 0.00 | 0.00 | 0.00 | 76 | 1012.8 |
| 20260506172806 | 68 | 119 | 6.0 | 7.0 | 0.00 | 0.00 | 0.00 | 73 | 1012.5 |
| 20260506172306 | 68 | 179 | 8.0 | 14.0 | 0.00 | 0.00 | 0.00 | 72 | 1012.5 |
| 20260506171800 | 69 | 126 | 6.0 | 9.0 | 0.00 | 0.00 | 0.00 | 70 | 1012.5 |
| 20260506171257 | 69 | 119 | 7.0 | 14.0 | 0.00 | 0.00 | 0.00 | 69 | 1012.4 |
| 20260506170755 | 69 | 131 | 5.0 | 11.0 | 0.00 | 0.00 | 0.00 | 69 | 1012.4 |
| 20260506170251 | 69 | 124 | 9.0 | 13.0 | 0.00 | 0.00 | 0.00 | 69 | 1012.3 |
| 20260506165750 | 69 | 127 | 7.0 | 15.0 | 0.00 | 0.00 | 0.00 | 69 | 1012.2 |
| 20260506165247 | 70 | 155 | 11.0 | 15.0 | 0.00 | 0.00 | 0.00 | 67 | 1012.2 |
| 20260506164744 | 70 | 119 | 11.0 | 15.0 | 0.00 | 0.00 | 0.00 | 66 | 1012.3 |
| 20260506164240 | 70 | 134 | 9.0 | 14.0 | 0.00 | 0.00 | 0.00 | 65 | 1012.3 |
| 20260506163737 | 71 | 189 | 11.0 | 15.0 | 0.00 | 0.00 | 0.00 | 65 | 1012.3 |
| 20260506163232 | 71 | 174 | 9.0 | 16.0 | 0.00 | 0.00 | 0.00 | 66 | 1012.3 |
| 20260506162728 | 70 | 158 | 14.0 | 22.0 | 0.00 | 0.00 | 0.00 | 65 | 1012.5 |
| 20260506162226 | 69 | 113 | 4.0 | 13.0 | 0.00 | 0.00 | 0.00 | 68 | 1012.5 |
| 20260506161723 | 69 | 176 | 10.0 | 16.0 | 0.00 | 0.00 | 0.00 | 68 | 1013.0 |
| 20260506161220 | 70 | 157 | 5.0 | 8.0 | 0.00 | 0.00 | 0.00 | 68 | 1012.8 |
| 20260506160718 | 70 | 153 | 6.0 | 9.0 | 0.00 | 0.00 | 0.00 | 68 | 1013.0 |
| 20260506160214 | 70 | 123 | 5.0 | 11.0 | 0.00 | 0.00 | 0.00 | 68 | 1012.9 |
| 20260506155713 | 70 | 179 | 11.0 | 13.0 | 0.00 | 0.00 | 0.00 | 67 | 1013.1 |
| 20260506155210 | 70 | 184 | 10.0 | 20.0 | 0.00 | 0.00 | 0.00 | 67 | 1013.1 |
| 20260506153312 | 70 | 128 | 12.0 | 18.0 | 0.00 | 0.00 | 0.00 | 67 | 1013.1 |
| 20260506152808 | 70 | 114 | 11.0 | 17.0 | 0.00 | 0.00 | 0.00 | 67 | 1013.1 |
| 20260506152306 | 70 | 103 | 7.0 | 13.0 | 0.00 | 0.00 | 0.00 | 68 | 1013.5 |
| 20260506151805 | 69 | 139 | 17.0 | 22.0 | 0.00 | 0.00 | 0.00 | 67 | 1013.3 |
| 20260506151301 | 70 | 148 | 6.0 | 13.0 | 0.00 | 0.00 | 0.00 | 68 | 1013.4 |
| 20260506150758 | 69 | 157 | 5.0 | 10.0 | 0.00 | 0.00 | 0.00 | 69 | 1013.7 |
| 20260506150303 | 69 | 173 | 4.0 | 18.0 | 0.00 | 0.00 | 0.00 | 69 | 1013.6 |
| 20260506145751 | 69 | 185 | 11.0 | 21.0 | 0.00 | 0.00 | 0.00 | 69 | 1013.7 |
| 20260506145248 | 69 | 133 | 10.0 | 15.0 | 0.00 | 0.00 | 0.00 | 70 | 1013.6 |
| 20260506144746 | 68 | 153 | 4.0 | 8.0 | 0.00 | 0.00 | 0.00 | 72 | 1013.7 |
| 20260506144242 | 68 | 167 | 10.0 | 11.0 | 0.00 | 0.00 | 0.00 | 73 | 1013.5 |
| 20260506143740 | 67 | 126 | 7.0 | 13.0 | 0.00 | 0.00 | 0.00 | 73 | 1013.6 |
| 20260506143237 | 67 | 153 | 7.0 | 9.0 | 0.00 | 0.00 | 0.00 | 74 | 1013.6 |
| 20260506142736 | 68 | 125 | 5.0 | 13.0 | 0.00 | 0.00 | 0.00 | 73 | 1013.8 |
| 20260506142233 | 67 | 84 | 12.0 | 16.0 | 0.00 | 0.00 | 0.00 | 74 | 1013.8 |
| 20260506141731 | 67 | 145 | 8.0 | 14.0 | 0.00 | 0.00 | 0.00 | 74 | 1013.9 |
| 20260506141229 | 67 | 172 | 8.0 | 15.0 | 0.00 | 0.00 | 0.00 | 75 | 1013.6 |
| 20260506140727 | 67 | 133 | 7.0 | 17.0 | 0.00 | 0.00 | 0.00 | 75 | 1013.8 |
| 20260506140223 | 67 | 182 | 3.0 | 14.0 | 0.00 | 0.00 | 0.00 | 76 | 1013.6 |
| 20260506135720 | 67 | 143 | 8.0 | 15.0 | 0.00 | 0.00 | 0.00 | 77 | 1013.7 |
| 20260506135216 | 66 | 117 | 8.0 | 17.0 | 0.00 | 0.00 | 0.00 | 78 | 1013.5 |
| 20260506134714 | 66 | 141 | 10.0 | 18.0 | 0.00 | 0.00 | 0.00 | 78 | 1013.8 |
| 20260506134209 | 66 | 149 | 5.0 | 11.0 | 0.00 | 0.00 | 0.00 | 79 | 1013.7 |
| 20260506133707 | 65 | 157 | 6.0 | 22.0 | 0.00 | 0.00 | 0.00 | 79 | 1013.8 |
| 20260506133203 | 65 | 96 | 7.0 | 16.0 | 0.00 | 0.00 | 0.00 | 80 | 1013.8 |
| 20260506132701 | 65 | 177 | 9.0 | 13.0 | 0.00 | 0.00 | 0.00 | 80 | 1013.8 |
| 20260506132157 | 64 | 161 | 5.0 | 11.0 | 0.00 | 0.00 | 0.00 | 82 | 1013.8 |
| 20260506131655 | 64 | 150 | 15.0 | 24.0 | 0.00 | 0.00 | 0.00 | 82 | 1014.1 |
| 20260506131151 | 63 | 142 | 12.0 | 21.0 | 0.00 | 0.00 | 0.00 | 83 | 1014.1 |
| 20260506130648 | 63 | 163 | 7.0 | 13.0 | 0.00 | 0.00 | 0.00 | 83 | 1014.6 |
| 20260506130145 | 63 | 143 | 7.0 | 11.0 | 0.00 | 0.00 | 0.00 | 84 | 1014.5 |
| 20260506125643 | 62 | 147 | 8.0 | 11.0 | 0.00 | 0.00 | 0.00 | 85 | 1014.3 |
| 20260506125141 | 62 | 166 | 6.0 | 8.0 | 0.00 | 0.00 | 0.00 | 86 | 1014.2 |
| 20260506124639 | 61 | 125 | 4.0 | 8.0 | 0.00 | 0.00 | 0.00 | 87 | 1014.3 |
| 20260506124136 | 62 | 122 | 5.0 | 13.0 | 0.00 | 0.00 | 0.00 | 87 | 1014.4 |
| 20260506123633 | 62 | 123 | 3.0 | 8.0 | 0.00 | 0.00 | 0.00 | 86 | 1014.1 |
| 20260506123132 | 62 | 132 | 3.0 | 10.0 | 0.00 | 0.00 | 0.00 | 86 | 1014.2 |
| 20260506122628 | 61 | 125 | 4.0 | 10.0 | 0.00 | 0.00 | 0.00 | 88 | 1014.3 |
| 20260506122126 | 61 | 141 | 6.0 | 10.0 | 0.00 | 0.00 | 0.00 | 87 | 1014.5 |
| 20260506121624 | 60 | 124 | 5.0 | 9.0 | 0.00 | 0.00 | 0.00 | 89 | 1014.3 |
| 20260506121120 | 60 | 166 | 11.0 | 13.0 | 0.00 | 0.00 | 0.00 | 89 | 1014.7 |
| 20260506120618 | 60 | 137 | 7.0 | 15.0 | 0.00 | 0.00 | 0.00 | 90 | 1014.5 |
| 20260506120115 | 60 | 138 | 4.0 | 10.0 | 0.00 | 0.00 | 0.00 | 90 | 1014.3 |
| 20260506115614 | 60 | 155 | 3.0 | 5.0 | 0.00 | 0.00 | 0.00 | 90 | 1014.6 |
| 20260506115112 | 59 | 112 | 1.0 | 6.0 | 0.00 | 0.00 | 0.00 | 91 | 1014.4 |
| 20260506114608 | 59 | 112 | 3.0 | 5.0 | 0.00 | 0.00 | 0.00 | 91 | 1014.3 |
| 20260506114107 | 59 | 106 | 0.0 | 7.0 | 0.00 | 0.00 | 0.00 | 92 | 1014.7 |
| 20260506113604 | 58 | 218 | 4.0 | 5.0 | 0.00 | 0.00 | 0.00 | 92 | 1014.6 |
| 20260506113101 | 58 | 134 | 1.0 | 5.0 | 0.00 | 0.00 | 0.00 | 93 | 1014.7 |
| 20260506112557 | 57 | 165 | 3.0 | 5.0 | 0.00 | 0.00 | 0.00 | 94 | 1014.7 |
| 20260506112055 | 57 | 139 | 2.0 | 5.0 | 0.00 | 0.00 | 0.00 | 94 | 1014.8 |
| 20260506111553 | 57 | 132 | 2.0 | 5.0 | 0.00 | 0.00 | 0.00 | 93 | 1014.8 |
| 20260506111050 | 58 | 123 | 3.0 | 5.0 | 0.00 | 0.00 | 0.00 | 93 | 1015.0 |
| 20260506110548 | 58 | 132 | 4.0 | 7.0 | 0.00 | 0.00 | 0.00 | 93 | 1015.1 |
| 20260506110045 | 57 | 141 | 4.0 | 7.0 | 0.00 | 0.00 | 0.00 | 94 | 1014.9 |
| 20260506105541 | 57 | 135 | 2.0 | 6.0 | 0.00 | 0.00 | 0.00 | 94 | 1014.8 |
| 20260506105038 | 57 | 148 | 3.0 | 7.0 | 0.00 | 0.00 | 0.00 | 94 | 1014.8 |
| 20260506104536 | 57 | 151 | 3.0 | 6.0 | 0.00 | 0.00 | 0.00 | 94 | 1014.8 |
| 20260506104034 | 57 | 128 | 5.0 | 7.0 | 0.00 | 0.00 | 0.00 | 94 | 1014.8 |
| 20260506103531 | 57 | 145 | 2.0 | 6.0 | 0.00 | 0.00 | 0.00 | 95 | 1014.6 |
| 20260506103027 | 56 | 132 | 3.0 | 5.0 | 0.00 | 0.00 | 0.00 | 95 | 1014.4 |
| 20260506102526 | 56 | 130 | 4.0 | 8.0 | 0.00 | 0.00 | 0.00 | 95 | 1014.7 |
| 20260506102023 | 56 | 130 | 2.0 | 3.0 | 0.00 | 0.00 | 0.00 | 95 | 1014.6 |
| 20260506101519 | 56 | 144 | 3.0 | 5.0 | 0.00 | 0.00 | 0.00 | 95 | 1014.8 |
| 20260506101016 | 56 | 97 | 1.0 | 3.0 | 0.00 | 0.00 | 0.00 | 95 | 1014.6 |
| 20260506100515 | 56 | 156 | 3.0 | 7.0 | 0.00 | 0.00 | 0.00 | 94 | 1014.6 |
| 20260506100013 | 56 | 163 | 3.0 | 6.0 | 0.00 | 0.00 | 0.00 | 94 | 1014.4 |
| 20260506095511 | 57 | 134 | 3.0 | 6.0 | 0.00 | 0.00 | 0.00 | 94 | 1014.6 |
| 20260506095007 | 57 | 141 | 3.0 | 5.0 | 0.00 | 0.00 | 0.00 | 94 | 1014.6 |
| 20260506094505 | 57 | 168 | 4.0 | 7.0 | 0.00 | 0.00 | 0.00 | 94 | 1014.5 |
| 20260506094002 | 57 | 156 | 4.0 | 7.0 | 0.00 | 0.00 | 0.00 | 93 | 1014.5 |
| 20260506093501 | 57 | 157 | 6.0 | 9.0 | 0.00 | 0.00 | 0.00 | 94 | 1014.5 |
| 20260506092958 | 57 | 153 | 3.0 | 8.0 | 0.00 | 0.00 | 0.00 | 94 | 1014.4 |
| 20260506092455 | 57 | 148 | 3.0 | 5.0 | 0.00 | 0.00 | 0.00 | 93 | 1014.4 |
| 20260506091952 | 57 | 140 | 4.0 | 6.0 | 0.00 | 0.00 | 0.00 | 93 | 1014.4 |
| 20260506091451 | 57 | 149 | 3.0 | 7.0 | 0.00 | 0.00 | 0.00 | 93 | 1014.1 |
| 20260506090947 | 57 | 180 | 5.0 | 7.0 | 0.00 | 0.00 | 0.00 | 93 | 1014.4 |
| 20260506090445 | 57 | 140 | 4.0 | 7.0 | 0.00 | 0.00 | 0.00 | 93 | 1014.6 |
| 20260506085941 | 57 | 132 | 3.0 | 6.0 | 0.00 | 0.00 | 0.00 | 92 | 1014.2 |
| 20260506085438 | 57 | 152 | 6.0 | 9.0 | 0.00 | 0.00 | 0.00 | 93 | 1014.5 |
| 20260506084934 | 57 | 178 | 4.0 | 5.0 | 0.00 | 0.00 | 0.00 | 93 | 1014.6 |
| 20260506084431 | 57 | 120 | 3.0 | 5.0 | 0.00 | 0.00 | 0.00 | 92 | 1014.5 |
| 20260506083927 | 57 | 166 | 3.0 | 6.0 | 0.00 | 0.00 | 0.00 | 92 | 1014.8 |
| 20260506083425 | 57 | 151 | 2.0 | 7.0 | 0.00 | 0.00 | 0.00 | 92 | 1014.6 |
| 20260506082922 | 57 | 149 | 4.0 | 6.0 | 0.00 | 0.00 | 0.00 | 92 | 1014.7 |
| 20260506082419 | 57 | 142 | 2.0 | 6.0 | 0.00 | 0.00 | 0.00 | 92 | 1014.6 |
| 20260506081915 | 57 | 133 | 3.0 | 8.0 | 0.00 | 0.00 | 0.00 | 91 | 1014.8 |
| 20260506081414 | 57 | 130 | 3.0 | 5.0 | 0.00 | 0.00 | 0.00 | 91 | 1014.7 |
| 20260506080910 | 57 | 142 | 3.0 | 10.0 | 0.00 | 0.00 | 0.00 | 91 | 1014.6 |
| 20260506080407 | 57 | 147 | 4.0 | 8.0 | 0.00 | 0.00 | 0.00 | 90 | 1014.7 |
| 20260506073351 | 58 | 144 | 2.0 | 8.0 | 0.00 | 0.00 | 0.00 | 88 | 1014.9 |
| 20260506072847 | 58 | 116 | 5.0 | 8.0 | 0.00 | 0.00 | 0.00 | 88 | 1014.8 |